Terminal Aerodrome Forecast
Issued by NWS Atlanta, GA

Home | Current Version | Previous Version | Text Only | Print | Product List | Glossary On
Versions: 1 2 3 4 5 6 7 8 9 10 11 12 13 14 15 16 17 18 19 20 21 22 23 24 25 26 27 28 29 30 31 32 33 34 35 36
000
FTUS42 KFFC 282137 AAB
TAFATL
TAF AMD
KATL 282137Z 2822/2924 24010KT P6SM FEW070
     FM290000 27005KT P6SM SKC
     FM291500 30010KT P6SM SKC
     FM291800 29012G20KT P6SM FEW050=

USA.gov is the U.S. government's official web portal to all federal, state and local government web resources and services.